User: anonymous   Login
Location: Oberwangen
(47.4286°N, 8.9679°E)
Time: 04:03:55
(UTC+00:00)
Language:

Cosmos 1825 - Orbit

View from above orbital plane
View from above orbital plane
View from above satellite
View from above satellite

Ground track
Ground track

The orbit data is extracted from the following two-line orbital elements,

1 17566U 87024A   21268.12055789  .00001685  00000-0  74856-4 0  9996
2 17566  82.5077 180.1582 0004154 146.9221 213.2275 15.20856092890625
Epoch (UTC): 25 September 2021 02:53:36
Eccentricity: 0.0004154
inclination: 82.5077°
perigee height: 500 km
apogee height: 506 km
right ascension of ascending node: 180.1582°
argument of perigee: 146.9221°
revolutions per day: 15.20856092
mean anomaly at epoch: 213.2275°
orbit number at epoch: 89062

The dashed part of the orbit path shows where the satellite is in the earth's shadow,  

DLR